Wind_Speed
28 27 28 29 31 33 30 27 25 19 19 23 25 21 19 18 17 18 14 13 9 9 7 4 2 3 4 6 7 9 9 8 6 5 5 6 7 7 8 10 11 12 12 11 11 11 11 12 13
33 32 32 33 34 33 29 30 27 25 28 29 28 26 22 20 20 20 16 13 10 9 8 6 7 8 12 11 10 10 9 8 5 5 6 7 7 7 9 9 9 9 9 10 10 10 11 12 13
35 36 36 38 38 32 22 26 31 33 35 34 34 31 26 24 24 21 21 13 13 16 13 9 10 15 16 12 11 11 9 7 6 4 3 4 5 6 6 7 9 11 12 13 14 15 16 17 17
40 41 42 43 38 26 24 25 27 29 33 37 37 39 33 30 27 24 27 25 22 20 15 12 12 15 14 11 8 10 8 6 6 4 5 5 6 7 9 12 13 14 15 15 17 18 19 20 22
45 47 48 45 38 26 25 27 27 29 33 39 39 43 39 35 33 31 31 29 21 15 17 14 15 13 11 7 8 8 7 8 7 8 9 10 10 12 14 15 16 17 20 21 21 21 22 24 25
52 53 54 51 41 28 33 30 27 27 32 42 44 47 43 40 38 36 33 27 24 18 13 17 18 14 9 7 8 9 9 10 11 11 13 14 15 17 19 20 20 21 22 24 23 24 25 25 26
59 58 58 55 48 38 37 34 34 33 33 37 48 50 47 44 41 39 36 30 26 21 15 16 19 19 16 15 13 11 12 13 14 16 16 16 18 20 23 24 25 26 25 27 28 27 30 30 29
67 66 64 61 54 44 43 39 39 39 37 36 43 47 48 45 40 41 40 34 29 26 21 16 16 20 26 22 20 16 14 16 17 20 20 21 22 24 25 26 27 27 27 29 30 31 31 30 26
73 75 70 64 60 53 47 46 46 45 43 43 41 41 49 50 46 44 42 37 34 29 25 24 24 22 23 24 21 20 19 18 22 24 23 23 25 27 27 27 27 28 28 30 31 31 30 26 23
70 79 75 72 68 62 55 53 53 52 50 48 46 43 41 52 52 48 44 40 40 36 32 28 28 28 27 22 23 23 21 24 26 26 26 27 27 28 29 29 28 30 29 29 29 27 24 24 22
69 74 69 75 73 69 64 61 64 58 54 52 51 51 45 46 52 51 47 41 45 40 37 34 31 30 31 30 27 24 25 26 26 27 28 29 30 30 31 32 31 31 28 30 27 24 24 23 22
73 69 69 71 69 69 69 66 68 65 60 58 56 54 50 49 50 51 49 42 42 45 42 38 33 32 34 32 30 26 26 27 26 28 30 31 31 31 31 32 32 34 31 31 26 22 23 22 23
77 75 75 74 72 68 69 66 71 68 66 66 64 62 54 51 52 53 53 49 43 43 44 37 36 37 33 34 31 29 27 28 29 31 30 31 32 30 34 34 34 33 30 30 24 22 22 21 23
79 82 81 80 74 72 72 65 68 65 68 68 68 67 62 57 54 54 53 50 44 46 47 39 38 34 31 35 31 30 30 29 30 32 32 34 31 36 33 36 36 35 38 28 21 21 21 21 23
77 82 85 83 78 76 74 71 67 59 65 67 67 68 64 61 60 56 53 50 51 53 52 41 41 37 28 34 35 34 32 32 33 31 32 30 35 37 38 40 45 42 26 21 20 21 20 21 23
76 81 82 82 81 78 74 74 59 64 64 65 66 65 65 62 61 58 57 58 57 57 51 43 44 30 31 38 41 37 36 34 32 26 25 28 33 37 40 38 40 33 17 19 20 22 20 23 24
70 78 83 81 79 81 79 77 68 66 64 64 61 60 60 61 61 56 55 57 59 59 54 45 45 37 39 40 42 39 36 31 27 22 24 24 24 31 37 41 31 24 19 17 19 21 21 24 26
52 71 79 82 79 79 82 81 79 71 68 66 64 61 59 61 58 55 55 56 58 59 55 46 42 43 43 41 41 37 32 25 24 24 23 25 27 30 33 27 18 20 17 16 18 21 22 26 28
40 46 77 83 79 79 81 84 81 73 71 66 66 62 59 57 59 57 56 56 56 55 49 45 48 46 40 44 39 32 27 25 28 26 27 27 31 34 33 28 24 18 17 18 20 20 24 28 28
34 38 42 76 82 79 77 81 84 74 73 69 66 62 60 57 60 58 56 55 54 49 43 49 42 46 40 39 35 32 29 29 30 26 27 29 32 35 33 30 24 20 20 18 20 23 26 28 27
30 31 27 44 74 82 81 83 79 75 73 70 66 61 60 58 60 58 56 54 52 47 43 39 37 40 41 39 38 34 32 30 28 26 27 29 30 32 31 31 27 28 22 17 25 25 28 29 29
27 28 27 36 49 77 78 85 79 75 73 73 68 61 60 60 62 60 59 57 51 47 43 42 39 42 41 41 38 33 33 30 31 30 33 33 33 34 37 35 30 22 12 18 26 26 30 31 32
23 25 28 33 43 58 75 83 80 79 75 71 68 64 61 64 64 63 60 57 55 50 46 43 40 42 42 39 37 35 32 30 31 33 32 34 33 28 34 42 39 20 15 25 26 27 32 33 34
21 27 27 25 35 42 64 76 85 81 75 72 72 66 62 66 66 64 62 61 58 52 49 47 42 43 43 41 38 35 33 31 31 32 33 34 35 34 42 43 17 17 21 26 26 30 34 36 36
21 24 29 22 36 42 50 66 83 77 76 74 73 68 63 65 67 65 63 61 59 52 49 48 45 43 42 41 38 34 32 33 32 32 32 36 36 39 45 33 24 22 24 27 30 33 35 37 38
19 21 24 28 18 27 36 56 80 72 72 75 74 70 66 63 67 66 64 61 60 54 50 47 45 43 42 40 39 36 35 35 35 32 34 37 39 40 46 23 31 23 22 30 32 35 36 37 38
16 18 18 22 17 15 23 41 63 71 71 74 74 74 70 66 66 70 68 65 60 57 52 48 47 45 42 44 40 37 35 37 37 34 35 39 41 43 44 38 31 20 25 31 33 36 37 38 39
21 17 18 25 27 23 18 12 41 67 68 68 70 70 69 68 66 67 69 67 62 58 54 50 50 49 46 47 42 38 35 39 39 36 36 37 40 42 30 24 13 21 28 30 34 36 37 38 39
22 19 17 22 24 26 18 3 15 52 69 68 67 69 69 69 67 66 67 68 65 61 57 52 50 48 48 48 42 38 37 40 39 36 34 35 38 40 42 31 18 26 26 32 35 36 36 37 40
22 19 18 21 23 20 19 4 9 27 58 70 68 68 68 68 68 68 68 66 65 62 58 55 53 51 49 48 46 41 43 41 36 34 35 38 38 37 45 33 22 24 30 34 34 34 35 38 40
Wind_Direction
229 228 224 218 217 214 208 199 199 208 219 235 239 232 216 204 198 189 188 179 181 190 199 195 250 269 319 330 342 326 324 329 338 347 356 0 5 356 353 354 355 358 359 352 342 335 327 321 317
239 235 230 227 223 214 203 202 206 212 221 230 240 241 235 220 215 212 205 208 210 226 221 230 278 284 303 309 315 317 314 311 315 336 2 14 17 23 18 13 1 356 350 340 331 324 319 317 317
236 239 238 232 226 214 197 205 210 217 226 233 237 244 240 238 226 225 236 254 255 239 231 242 277 298 311 301 310 319 307 306 312 351 4 0 351 348 339 328 322 322 325 323 320 317 315 313 309
235 238 239 236 228 216 202 205 210 217 225 228 236 238 242 240 241 230 238 265 280 244 232 250 273 294 304 299 302 315 309 301 309 307 305 302 307 310 310 311 314 313 309 308 307 305 304 305 303
237 238 240 239 232 211 217 211 212 223 228 229 235 234 238 242 246 247 250 259 257 274 240 251 271 282 291 283 295 304 304 302 298 298 295 297 302 307 303 301 303 306 306 306 306 307 307 306 304
240 237 239 239 237 222 217 222 230 231 228 230 232 237 239 245 247 251 253 255 258 262 275 265 269 265 277 290 299 300 291 290 291 292 295 301 303 300 298 299 304 309 312 313 313 312 308 304 304
244 242 241 241 237 223 222 226 233 236 232 232 233 237 241 244 248 253 256 256 259 264 264 271 268 262 266 271 278 289 294 291 288 290 292 292 290 291 296 304 308 310 313 314 314 311 308 307 308
246 246 242 240 239 230 231 233 237 241 237 234 240 241 243 249 251 256 261 265 264 266 263 261 284 280 269 267 268 273 276 280 281 283 284 285 288 291 295 297 298 303 308 311 311 311 310 306 311
244 245 246 244 243 240 240 241 242 243 241 240 241 240 242 247 251 253 257 260 264 265 263 261 269 270 265 261 263 263 262 268 275 277 281 285 289 291 292 294 295 301 307 309 312 313 309 309 311
240 245 248 247 248 247 242 241 241 241 241 240 240 242 241 243 248 250 252 256 259 261 262 254 259 257 256 256 256 259 262 262 266 274 279 283 287 288 291 293 297 301 306 308 311 310 307 309 309
249 242 242 242 242 242 239 238 242 241 242 244 241 241 238 242 245 248 250 252 252 255 257 256 259 258 261 260 263 269 263 260 264 270 274 279 280 285 289 292 296 299 305 306 312 308 306 303 308
250 248 247 244 243 240 239 233 237 236 240 241 242 241 240 239 243 246 249 249 251 254 257 259 259 257 258 262 264 266 264 262 265 267 270 273 277 279 285 288 294 295 300 302 307 301 300 303 307
247 246 245 244 245 244 240 235 232 233 238 238 241 240 237 236 239 244 246 248 247 251 254 257 259 258 257 257 260 261 259 260 259 260 265 270 271 277 286 292 289 282 294 294 300 296 294 299 305
246 245 244 244 242 241 243 237 234 229 231 231 234 238 235 233 232 238 246 249 250 251 254 255 259 259 258 262 260 254 255 258 258 259 263 267 276 281 276 284 285 281 283 286 299 290 290 295 301
246 243 242 244 243 242 242 238 236 230 230 230 231 234 233 231 230 231 234 243 246 248 251 253 255 261 257 253 253 254 258 259 257 258 270 267 273 278 280 279 291 298 260 283 292 286 285 293 297
245 245 242 239 241 241 240 239 234 232 231 232 232 231 233 233 231 228 229 230 236 241 246 245 249 248 250 247 250 254 255 257 259 262 266 269 270 273 270 275 284 281 269 294 287 283 289 293 300
245 241 242 239 238 238 238 237 230 232 229 230 232 233 231 233 233 230 229 230 232 237 241 241 249 246 248 252 245 250 254 256 260 255 260 269 270 261 266 271 275 275 279 275 283 286 294 299 302
256 241 237 237 234 236 234 234 233 227 228 226 227 229 228 230 232 229 227 229 229 230 235 236 239 249 256 257 250 246 248 246 246 245 257 261 265 264 268 270 264 282 273 278 282 290 293 300 298
287 267 240 231 230 232 232 232 232 228 228 226 226 225 226 228 231 229 224 224 228 231 229 233 239 246 257 253 245 244 240 236 239 250 256 261 263 265 267 267 268 267 266 277 281 290 298 296 296
293 288 260 240 228 229 227 229 230 227 225 224 224 224 225 224 230 231 227 225 228 231 230 232 238 244 249 237 238 239 237 238 245 249 258 259 259 264 270 267 258 250 261 276 284 289 289 290 292
294 297 284 253 238 229 224 225 227 224 223 224 223 221 222 222 229 230 231 227 225 226 227 229 235 236 229 229 234 236 237 241 247 248 248 253 260 266 266 261 253 252 241 271 278 280 288 289 292
309 285 283 248 238 233 233 224 221 221 219 218 219 219 219 219 224 227 228 230 228 227 226 230 232 224 225 228 231 233 236 239 244 242 244 259 268 278 265 261 249 265 227 259 274 283 289 294 296
296 294 294 259 242 235 232 232 214 219 216 217 216 215 214 216 219 223 226 229 231 229 228 225 223 222 223 224 228 232 237 240 245 248 253 256 269 274 267 265 248 251 264 276 282 290 292 296 295
293 296 303 269 232 240 234 233 217 216 213 213 214 213 212 212 216 220 221 225 228 226 220 218 214 218 219 222 225 229 235 240 244 248 253 255 260 267 267 274 260 267 277 283 291 294 293 296 297
298 296 299 303 242 246 240 237 224 216 211 211 212 210 209 211 213 218 220 222 225 220 217 213 214 221 224 223 225 229 235 241 245 249 249 251 256 263 265 254 267 262 276 290 294 294 293 295 297
294 287 292 289 280 261 255 240 223 216 211 214 213 211 208 208 211 214 219 221 222 220 218 218 220 225 227 228 228 230 232 240 245 249 249 248 253 261 257 269 260 255 267 275 288 292 295 299 301
296 302 303 289 290 282 257 246 227 218 212 212 213 214 210 207 208 211 215 219 221 220 217 218 222 226 226 230 226 232 235 241 246 248 247 249 255 265 252 244 243 250 265 277 288 294 296 300 302
304 290 288 291 283 290 309 248 227 221 218 218 214 212 211 208 207 209 213 218 219 221 220 218 218 221 225 229 229 232 238 243 246 248 247 253 256 270 249 253 261 271 276 284 291 294 297 300 302
302 294 276 268 276 275 298 296 186 216 220 219 217 213 211 208 206 206 211 216 219 220 220 218 220 223 225 230 232 234 239 244 247 249 253 257 260 264 267 268 262 269 289 291 292 296 299 303 305
293 286 277 267 274 282 279 226 255 210 217 222 219 214 211 208 207 207 208 213 216 219 221 222 224 227 228 233 235 238 241 244 246 246 248 253 258 260 262 278 275 285 287 289 294 299 303 306 307
Height
5882 5884 5886 5888 5891 5892 5896 5902 5904 5905 5906 5907 5909 5913 5915 5917 5918 5920 5917 5917 5918 5919 5921 5922 5923 5923 5923 5924 5923 5924 5925 5925 5925 5925 5925 5925 5925 5926 5926 5926 5927 5927 5927 5927 5926 5925 5924 5922 5921
5878 5879 5881 5882 5884 5887 5894 5899 5902 5902 5902 5903 5904 5908 5912 5915 5916 5916 5916 5916 5917 5918 5919 5920 5921 5922 5922 5922 5922 5923 5924 5926 5925 5925 5926 5926 5926 5926 5926 5926 5927 5926 5925 5924 5923 5922 5921 5920 5919
5873 5874 5876 5875 5878 5885 5895 5897 5897 5898 5898 5899 5901 5903 5907 5910 5913 5915 5916 5916 5917 5917 5917 5918 5919 5919 5920 5921 5922 5923 5925 5926 5927 5926 5926 5926 5926 5926 5925 5924 5925 5925 5924 5923 5922 5921 5919 5918 5917
5867 5867 5868 5868 5876 5887 5891 5890 5891 5892 5892 5893 5895 5898 5902 5905 5908 5912 5913 5914 5916 5915 5916 5917 5917 5917 5919 5919 5921 5923 5924 5926 5927 5927 5927 5926 5925 5925 5924 5924 5923 5923 5922 5921 5920 5919 5917 5916 5914
5859 5859 5858 5861 5871 5883 5885 5885 5886 5887 5888 5889 5890 5893 5897 5901 5904 5906 5908 5911 5913 5914 5914 5915 5916 5917 5918 5919 5920 5922 5923 5925 5925 5925 5926 5925 5925 5925 5924 5922 5921 5920 5921 5920 5918 5917 5915 5913 5912
5849 5850 5850 5853 5865 5877 5876 5879 5879 5880 5882 5883 5884 5886 5892 5894 5898 5901 5903 5907 5909 5911 5913 5914 5915 5916 5917 5918 5919 5920 5921 5922 5923 5923 5924 5924 5924 5923 5921 5920 5919 5918 5918 5917 5916 5915 5912 5910 5908
5840 5841 5842 5848 5856 5866 5868 5871 5872 5873 5874 5879 5878 5879 5886 5889 5891 5894 5897 5901 5904 5907 5910 5911 5912 5914 5915 5917 5918 5918 5919 5919 5920 5920 5921 5920 5920 5918 5917 5917 5915 5915 5914 5913 5911 5909 5908 5906 5904
5829 5831 5833 5837 5847 5858 5860 5864 5864 5865 5869 5869 5870 5877 5880 5882 5887 5889 5891 5896 5900 5903 5907 5909 5910 5911 5912 5913 5915 5916 5917 5917 5917 5917 5916 5916 5915 5915 5914 5913 5911 5910 5911 5909 5907 5905 5904 5902 5899
5813 5813 5820 5830 5837 5847 5854 5855 5855 5856 5860 5862 5864 5869 5872 5875 5879 5884 5886 5890 5895 5899 5902 5905 5907 5908 5908 5909 5911 5912 5913 5913 5913 5912 5912 5911 5910 5910 5910 5909 5908 5908 5907 5905 5903 5901 5899 5898 5895
5793 5798 5811 5818 5824 5832 5839 5843 5842 5845 5848 5852 5856 5860 5867 5867 5870 5876 5881 5885 5889 5893 5897 5901 5903 5904 5904 5905 5906 5907 5909 5909 5909 5909 5909 5908 5907 5906 5905 5904 5904 5904 5904 5901 5898 5896 5894 5893 5890
5780 5785 5795 5795 5803 5809 5818 5827 5827 5833 5840 5845 5848 5849 5857 5860 5861 5866 5871 5878 5882 5885 5889 5895 5897 5898 5898 5899 5900 5902 5903 5904 5905 5906 5905 5904 5903 5902 5901 5900 5898 5898 5898 5896 5895 5892 5890 5889 5887
5762 5773 5777 5778 5783 5790 5798 5807 5813 5818 5831 5831 5835 5838 5849 5851 5853 5856 5862 5868 5874 5877 5882 5887 5890 5892 5892 5894 5895 5897 5898 5899 5900 5901 5900 5899 5898 5897 5895 5895 5894 5893 5893 5892 5892 5888 5886 5885 5883
5746 5753 5755 5759 5766 5773 5778 5790 5793 5807 5815 5818 5820 5825 5836 5842 5845 5847 5852 5858 5865 5871 5874 5880 5884 5885 5888 5888 5891 5892 5892 5894 5894 5894 5894 5894 5893 5892 5890 5889 5890 5888 5889 5888 5887 5885 5884 5881 5879
5728 5730 5736 5741 5751 5757 5762 5771 5776 5802 5799 5803 5806 5811 5821 5829 5835 5839 5844 5851 5859 5863 5867 5874 5876 5880 5882 5882 5884 5885 5885 5887 5888 5888 5888 5888 5888 5887 5886 5884 5884 5883 5883 5883 5882 5881 5880 5878 5875
5706 5708 5716 5724 5735 5742 5745 5752 5771 5788 5781 5787 5794 5798 5807 5817 5822 5831 5838 5843 5850 5855 5858 5865 5869 5873 5876 5875 5876 5877 5879 5881 5881 5882 5882 5883 5881 5880 5878 5878 5876 5876 5876 5877 5876 5876 5875 5873 5871
5683 5687 5696 5705 5712 5724 5727 5742 5769 5764 5767 5774 5780 5787 5794 5804 5812 5821 5828 5835 5838 5842 5850 5856 5858 5865 5868 5868 5868 5871 5874 5875 5876 5877 5876 5876 5874 5873 5871 5871 5871 5872 5873 5874 5873 5872 5870 5870 5866
5659 5666 5673 5686 5691 5700 5709 5729 5741 5743 5752 5761 5769 5777 5785 5791 5799 5811 5819 5825 5832 5836 5841 5847 5851 5856 5858 5860 5863 5865 5867 5869 5871 5871 5870 5869 5868 5867 5866 5866 5868 5868 5870 5869 5868 5868 5866 5864 5861
5642 5640 5649 5659 5673 5678 5692 5705 5711 5726 5734 5745 5755 5764 5773 5778 5789 5799 5807 5813 5820 5826 5832 5838 5841 5845 5852 5854 5856 5860 5862 5864 5865 5865 5865 5865 5863 5861 5860 5861 5864 5864 5865 5863 5863 5863 5861 5859 5857
5628 5624 5627 5634 5652 5659 5673 5683 5694 5713 5722 5732 5743 5752 5761 5771 5777 5785 5795 5801 5808 5817 5826 5829 5832 5840 5844 5848 5850 5853 5856 5857 5857 5859 5860 5859 5856 5855 5855 5858 5859 5859 5859 5858 5858 5856 5855 5855 5853
5615 5611 5611 5621 5628 5634 5654 5664 5677 5697 5709 5719 5730 5742 5752 5762 5766 5775 5785 5792 5800 5809 5816 5818 5826 5832 5838 5841 5845 5847 5849 5850 5852 5853 5854 5852 5850 5849 5850 5852 5852 5852 5853 5852 5852 5851 5850 5849 5847
5607 5602 5602 5605 5615 5620 5629 5641 5662 5680 5692 5704 5717 5732 5741 5753 5758 5765 5773 5783 5791 5799 5807 5814 5821 5825 5830 5834 5838 5841 5842 5844 5846 5848 5847 5845 5845 5845 5844 5845 5846 5844 5844 5845 5847 5845 5845 5844 5842
5599 5596 5595 5591 5593 5601 5615 5623 5643 5657 5673 5687 5703 5718 5730 5738 5744 5753 5762 5772 5783 5793 5800 5806 5812 5818 5823 5827 5831 5834 5835 5837 5838 5839 5840 5839 5840 5839 5838 5838 5837 5837 5836 5841 5841 5840 5839 5837 5835
5596 5590 5586 5583 5582 5589 5595 5602 5631 5639 5658 5681 5693 5705 5713 5721 5731 5742 5753 5764 5774 5783 5792 5799 5803 5810 5816 5821 5823 5826 5828 5829 5832 5834 5835 5834 5833 5833 5831 5830 5828 5832 5833 5834 5834 5833 5832 5830 5828
5587 5583 5578 5573 5575 5573 5583 5589 5611 5624 5650 5663 5675 5687 5697 5708 5719 5730 5743 5752 5762 5772 5781 5788 5797 5803 5808 5813 5815 5818 5821 5824 5825 5827 5828 5828 5827 5828 5826 5823 5823 5828 5827 5828 5828 5827 5825 5824 5821
5580 5578 5573 5569 5567 5566 5576 5575 5591 5614 5634 5647 5656 5670 5684 5697 5708 5719 5731 5742 5752 5764 5774 5782 5789 5795 5801 5806 5808 5813 5815 5817 5818 5820 5821 5822 5823 5823 5819 5816 5818 5819 5821 5823 5822 5820 5818 5816 5814
5577 5574 5570 5566 5564 5564 5565 5558 5582 5611 5623 5629 5643 5657 5671 5684 5698 5711 5721 5732 5743 5754 5764 5774 5781 5787 5794 5797 5802 5805 5807 5810 5811 5814 5814 5816 5815 5815 5811 5802 5812 5814 5817 5818 5816 5814 5812 5809 5807
5574 5570 5568 5563 5562 5559 5559 5561 5583 5596 5608 5617 5628 5640 5656 5671 5685 5697 5709 5720 5732 5743 5755 5765 5772 5779 5785 5788 5795 5797 5801 5802 5804 5806 5808 5809 5808 5808 5801 5804 5806 5808 5810 5811 5808 5808 5806 5803 5800
5568 5567 5565 5561 5558 5555 5555 5556 5566 5584 5595 5602 5615 5630 5644 5659 5674 5688 5700 5711 5722 5733 5745 5755 5762 5769 5775 5780 5786 5792 5795 5795 5796 5800 5801 5802 5803 5803 5798 5791 5796 5805 5805 5804 5803 5803 5799 5796 5792
5565 5563 5562 5559 5556 5554 5553 5555 5555 5567 5578 5589 5601 5615 5631 5649 5664 5678 5690 5701 5712 5723 5734 5745 5753 5760 5767 5772 5780 5785 5788 5787 5790 5795 5797 5798 5798 5798 5799 5794 5796 5801 5798 5798 5799 5795 5793 5789 5785
5562 5560 5557 5554 5554 5551 5550 5554 5555 5556 5567 5578 5591 5607 5622 5638 5653 5666 5678 5690 5703 5715 5726 5735 5743 5751 5758 5764 5770 5777 5779 5781 5786 5789 5791 5792 5793 5793 5792 5794 5794 5793 5793 5793 5791 5788 5785 5781 5776